[[{"header":{"parameterUnit":"m.s-1","parameterCategory":1,"la1":30.2991,"la2":30.254,"lo1":-89.0895,"lo2":-89.0444,"dy":0.0017,"dx":0.0017,"nx":28,"ny":28,"refTime":"2024-04-25T09:00:00:Z","depth":0,"parameterNumber":2,"parameterNumberName":"U-component_of_WINDS"},"data":[0,0,0,0,0,0,0,0,0,0,0,0,0,0,0,0,0,0,0,0,0,0,0,0,0,0,0,0,0,0,0,0,0,0,0,0,0,0,0,0,0,0,0,0,0,0,0,0,0,0,0,0,0,0,0,0,0,0,-1.4574,-1.4574,0,-1.4511,-1.451,-1.451,-1.4446,-1.4445,-1.4444,-1.4443,-1.4377,-1.4376,-1.4375,0,0,0,0,0,0,0,0,0,0,0,0,0,-1.4639,-1.4638,-1.4574,-1.4574,-1.4573,-1.4511,-1.451,-1.451,-1.4446,-1.4445,-1.4444,-1.4443,-1.4377,-1.4376,-1.4375,0,0,0,0,0,0,0,0,0,0,0,0,0,-1.4597,-1.4638,-1.4575,-1.4534,-1.4529,-1.4512,-1.451,-1.4509,-1.4446,-1.4445,-1.4444,-1.4442,-1.4378,-1.4376,-1.4375,-1.4391,0,0,-1.437,-1.437,0,0,0,0,0,0,0,0,-1.4599,-1.4594,-1.4541,-1.4537,-1.4532,-1.4485,-1.4509,-1.447,-1.4447,-1.4478,-1.4443,-1.4442,-1.4414,-1.4409,-1.44,-1.4388,-1.4385,-1.437,-1.4369,-1.4369,-1.4368,0,0,0,0,0,0,0,-1.4602,-1.4597,-1.4549,-1.454,-1.4534,-1.4518,-1.4511,-1.4501,-1.4454,-1.4475,-1.447,-1.4464,-1.4411,-1.4402,-1.4398,-1.4384,-1.437,-1.4369,-1.4368,-1.4367,-1.4383,-1.4385,0,0,0,0,0,0,-1.4612,-1.46,-1.4551,-1.4547,-1.4563,-1.4518,-1.451,-1.4501,-1.4454,-1.4445,-1.4465,-1.4461,-1.4405,-1.44,-1.4396,-1.4412,-1.4369,-1.4367,-1.4366,-1.4382,-1.4384,-1.4385,0,0,0,0,0,0,-1.4613,-1.4608,-1.4554,-1.4572,-1.4564,-1.4518,-1.4509,-1.4501,-1.4491,-1.4446,-1.4437,-1.4464,-1.4404,-1.4398,-1.4393,-1.4409,-1.4367,-1.4365,-1.438,-1.4382,-1.4384,-1.4446,0,0,0,0,0,0,-1.4615,-1.4609,-1.4615,-1.4573,-1.4563,-1.4553,-1.451,-1.45,-1.4489,-1.4484,-1.4443,-1.4435,-1.4402,-1.4396,-1.4392,-1.4406,-1.4364,-1.4379,-1.4381,-1.4384,-1.4442,-1.445,-1.4456,0,0,0,0,0,-1.4618,-1.4634,-1.4616,-1.461,-1.457,-1.4554,-1.4549,-1.4511,-1.4491,-1.4496,-1.4467,-1.4436,-1.4408,-1.4396,-1.4391,-1.4405,-1.4378,-1.4381,-1.4383,-1.4439,-1.4448,-1.4456,0,0,0,0,0,0,-1.4679,-1.4628,-1.4607,-1.461,-1.4587,-1.4543,-1.4549,-1.4522,-1.4504,-1.4499,-1.4453,-1.4444,-1.4445,-1.4424,-1.4412,-1.4419,-1.4388,-1.4391,-1.4433,-1.4441,-1.4448,-1.4453,-1.4363,0,0,0,0,0,-1.4693,-1.4685,-1.464,-1.4648,-1.4637,-1.4596,-1.4587,-1.456,-1.4534,-1.4524,-1.4494,-1.447,-1.4455,-1.4447,-1.4431,-1.4439,-1.4429,-1.4446,-1.4453,-1.4459,-1.4462,-1.4465,-1.4472,-1.4395,-1.4395,-1.4394,0,0,-1.4721,-1.4693,-1.469,-1.4659,-1.4638,-1.463,-1.4588,-1.4581,-1.4575,-1.4523,-1.4517,-1.4495,-1.4464,-1.4466,-1.4466,-1.4449,-1.4481,-1.4463,-1.4468,-1.4467,-1.4469,-1.4476,-1.4483,-1.4397,-1.4396,-1.4396,0,0,-1.477,-1.4747,-1.4751,-1.4731,-1.47,-1.4672,-1.4673,-1.4634,-1.4617,-1.4611,-1.4572,-1.4563,-1.4539,-1.4519,-1.4506,-1.4548,-1.4518,-1.4544,-1.458,-1.4584,-1.459,-1.4595,-1.461,-1.4616,-1.4546,-1.4546,-1.4546,0,-1.4809,-1.4796,-1.4756,-1.4752,-1.474,-1.4693,-1.4697,-1.4679,-1.4644,-1.4637,-1.4619,-1.4588,-1.4564,-1.4561,-1.4572,-1.4562,-1.4562,-1.4548,-1.4592,-1.4597,-1.4601,-1.4615,-1.4621,-1.455,-1.4549,-1.4549,-1.4549,0,-1.4846,-1.4838,-1.4845,-1.4813,-1.4802,-1.4802,-1.4761,-1.4754,-1.4729,-1.4703,-1.4697,-1.4667,-1.4645,-1.4642,-1.4616,-1.4635,-1.4626,-1.4601,-1.4569,-1.4613,-1.4625,-1.463,-1.4554,-1.4553,-1.4552,-1.4551,0,0,-1.4931,-1.4878,-1.4881,-1.4867,-1.4829,-1.4822,-1.482,-1.4798,-1.4793,-1.4771,-1.4768,-1.4749,-1.4726,-1.4711,-1.4683,-1.4686,-1.4721,-1.466,-1.4658,-1.4673,-1.4741,-1.476,-1.4767,-1.4701,-1.4702,-1.4703,-1.4743,0,-1.4973,-1.4967,-1.4931,-1.4936,-1.4928,-1.4883,-1.4881,-1.4858,-1.4834,-1.4823,-1.4796,-1.4784,-1.4754,-1.4744,-1.4745,-1.4717,-1.4734,-1.4713,-1.4698,-1.4698,-1.4708,-1.4773,-1.4794,-1.4834,-1.4748,-1.4749,-1.4749,0,-1.5022,-1.5003,-1.5007,-1.497,-1.4965,-1.4964,-1.4942,-1.4933,-1.4905,-1.4887,-1.4871,-1.484,-1.4835,-1.4805,-1.4797,-1.4784,-1.4776,-1.4761,-1.4761,-1.4759,-1.4727,-1.4773,-1.4845,-1.4852,-1.4756,-1.4756,-1.4755,0,-1.5084,-1.506,-1.5059,-1.5048,-1.5005,-1.5005,-1.4987,-1.4958,-1.4948,-1.4929,-1.4921,-1.4901,-1.4891,-1.4876,-1.4839,-1.4821,-1.4836,-1.4803,-1.4821,-1.4822,-1.4826,-1.4827,-1.4899,-1.4821,-1.482,-1.482,-1.482,0,-1.5135,-1.5139,-1.5087,-1.5087,-1.509,-1.5048,-1.5053,-1.503,-1.5005,-1.4999,-1.4959,-1.4955,-1.4907,-1.4897,-1.4869,-1.4867,-1.4862,-1.4847,-1.484,-1.4851,-1.4853,-1.4845,-1.4842,-1.4822,-1.4821,-1.4821,-1.4821,0,-1.5206,-1.5171,-1.5167,-1.5127,-1.5117,-1.5121,-1.5086,-1.5084,-1.5057,-1.5051,-1.5047,-1.5005,-1.4991,-1.4953,-1.4929,-1.491,-1.4917,-1.4902,-1.4926,-1.4922,-1.4942,-1.4941,-1.5012,-1.5019,-1.4936,-1.4937,-1.4937,0,-1.5241,-1.5243,-1.5203,-1.5197,-1.5181,-1.5171,-1.516,-1.512,-1.511,-1.508,-1.5081,-1.5064,-1.5049,-1.5028,-1.4996,-1.4977,-1.4962,-1.4988,-1.4959,-1.4971,-1.4963,-1.4964,-1.4964,-1.4995,-1.4996,-1.4997,-1.4998,0,-1.5308,-1.529,-1.5277,-1.5258,-1.5247,-1.5229,-1.521,-1.5207,-1.5161,-1.5153,-1.5138,-1.5126,-1.5102,-1.5086,-1.5063,-1.5043,-1.5013,-1.5007,-1.501,-1.5022,-1.5036,-1.503,-1.4944,-1.5006,-1.5005,-1.5004,-1.5004,-1.5004,-1.5362,-1.5362,-1.5334,-1.5321,-1.5302,-1.5285,-1.5281,-1.5254,-1.5242,-1.522,-1.5196,-1.5185,-1.5157,-1.5123,-1.5105,-1.5095,-1.508,-1.5084,-1.5085,-1.5087,-1.5093,-1.5038,-1.5091,-1.5091,-1.509,-1.509,-1.509,0,-1.5427,-1.5407,-1.5395,-1.5369,-1.5359,-1.5332,-1.5309,-1.5302,-1.5292,-1.527,-1.5255,-1.5239,-1.5223,-1.5189,-1.517,-1.5169,-1.5154,-1.5165,-1.5165,-1.5161,-1.5108,-1.5107,-1.5177,-1.5177,-1.5177,-1.5177,-1.5177,-1.5177,-1.546,-1.5459,-1.5438,-1.5427,-1.5407,-1.5396,-1.5385,-1.5369,-1.5351,-1.5335,-1.5321,-1.53,-1.5272,-1.5251,-1.5235,-1.5226,-1.5221,-1.5236,-1.5222,-1.5173,-1.5165,-1.5157,-1.5156,-1.5235,-1.5235,-1.5276,-1.5277,-1.5277]},{"header":{"parameterUnit":"m.s-1","parameterCategory":1,"la1":30.2991,"la2":30.254,"lo1":-89.0895,"lo2":-89.0444,"dy":0.0017,"dx":0.0017,"nx":28,"ny":28,"refTime":"2024-04-25T09:00:00:Z","depth":0,"parameterNumber":3,"parameterNumberName":"V-component_of_WINDS"},"data":[0,0,0,0,0,0,0,0,0,0,0,0,0,0,0,0,0,0,0,0,0,0,0,0,0,0,0,0,0,0,0,0,0,0,0,0,0,0,0,0,0,0,0,0,0,0,0,0,0,0,0,0,0,0,0,0,0,0,3.7144,3.7144,0,3.7151,3.7151,3.7151,3.7101,3.71,3.7098,3.7097,3.7103,3.7104,3.7106,0,0,0,0,0,0,0,0,0,0,0,0,0,3.7086,3.7087,3.7144,3.7144,3.7144,3.7151,3.7151,3.7151,3.7101,3.71,3.7098,3.7096,3.7102,3.7104,3.7106,0,0,0,0,0,0,0,0,0,0,0,0,0,3.7104,3.7088,3.7144,3.712,3.7118,3.7151,3.7151,3.7151,3.7102,3.71,3.7097,3.7096,3.7102,3.7104,3.7106,3.7162,0,0,3.7113,3.7114,0,0,0,0,0,0,0,0,3.7103,3.7106,3.7124,3.7122,3.712,3.7123,3.7133,3.7155,3.7102,3.7108,3.7097,3.7094,3.7111,3.7113,3.7118,3.7162,3.7162,3.7113,3.7114,3.7115,3.7116,0,0,0,0,0,0,0,3.7102,3.7106,3.7147,3.7124,3.7121,3.7109,3.7109,3.7137,3.7121,3.7107,3.7104,3.7105,3.711,3.7116,3.7118,3.7162,3.7113,3.7115,3.7116,3.7117,3.7251,3.7254,0,0,0,0,0,0,3.7104,3.7105,3.7146,3.7147,3.7106,3.7111,3.7112,3.7124,3.7121,3.7118,3.7107,3.7103,3.7114,3.7116,3.7118,3.7183,3.7115,3.7117,3.7119,3.7249,3.7252,3.7254,0,0,0,0,0,0,3.7103,3.7108,3.7146,3.7125,3.7129,3.7115,3.7129,3.7125,3.7132,3.7121,3.7117,3.7117,3.7112,3.7115,3.7151,3.7182,3.7118,3.712,3.7247,3.725,3.7253,3.7312,0,0,0,0,0,0,3.7102,3.7108,3.7129,3.7126,3.713,3.718,3.7131,3.7127,3.7136,3.7131,3.7129,3.7127,3.7111,3.7148,3.7153,3.7184,3.7122,3.7244,3.7248,3.7252,3.7308,3.7317,3.7326,0,0,0,0,0,3.71,3.7146,3.7131,3.7136,3.7156,3.7181,3.7184,3.7165,3.7139,3.716,3.7152,3.7127,3.7178,3.7152,3.7158,3.719,3.7242,3.7247,3.7252,3.7304,3.7315,3.7326,0,0,0,0,0,0,3.7153,3.7145,3.7128,3.7174,3.7179,3.7173,3.7199,3.7178,3.719,3.7185,3.716,3.716,3.7201,3.7199,3.717,3.7243,3.7205,3.7212,3.7243,3.7254,3.7263,3.7262,3.7124,0,0,0,0,0,3.717,3.7192,3.7183,3.7225,3.7228,3.7213,3.7223,3.7209,3.7212,3.7214,3.7209,3.7213,3.723,3.7242,3.7257,3.7307,3.7306,3.7332,3.7341,3.7348,3.7354,3.738,3.7391,3.7271,3.7271,3.7271,0,0,3.7206,3.7204,3.7219,3.7235,3.7237,3.726,3.7215,3.7241,3.7257,3.7217,3.7251,3.7248,3.7251,3.7295,3.7313,3.7294,3.7387,3.7355,3.7361,3.7362,3.7386,3.7398,3.7408,3.7274,3.7274,3.7273,0,0,3.7282,3.7283,3.7318,3.7321,3.7324,3.7314,3.7322,3.732,3.7316,3.735,3.7321,3.7339,3.7369,3.7372,3.7378,3.7456,3.7432,3.7461,3.7508,3.7534,3.7544,3.7552,3.7579,3.7589,3.7467,3.7467,3.7467,0,3.7326,3.7359,3.7338,3.7366,3.7374,3.7339,3.7374,3.7378,3.7386,3.7392,3.737,3.7407,3.7407,3.745,3.7469,3.7475,3.7483,3.7461,3.7544,3.7552,3.7559,3.7585,3.7596,3.7471,3.747,3.747,3.747,0,3.7412,3.7435,3.7463,3.7472,3.7483,3.7514,3.7498,3.7511,3.7495,3.7487,3.7522,3.752,3.7534,3.7544,3.7528,3.7585,3.7573,3.7548,3.751,3.7575,3.7598,3.7608,3.7476,3.7474,3.7473,3.7472,0,0,3.7522,3.752,3.753,3.7534,3.7535,3.7552,3.7581,3.7595,3.7607,3.7614,3.7638,3.7664,3.7641,3.7647,3.7632,3.7655,3.7716,3.7627,3.7626,3.7643,3.7778,3.7796,3.7808,3.77,3.7702,3.7704,3.7777,0,3.7597,3.7647,3.7629,3.768,3.7701,3.7668,3.7694,3.7697,3.7691,3.7707,3.7699,3.7718,3.7687,3.769,3.7711,3.7704,3.7742,3.7698,3.7722,3.7723,3.7722,3.782,3.784,3.7909,3.7786,3.7788,3.7789,0,3.769,3.7701,3.7754,3.7751,3.7759,3.7783,3.7794,3.781,3.7813,3.7806,3.7814,3.7794,3.7822,3.7784,3.7822,3.7792,3.7801,3.7799,3.7801,3.7802,3.776,3.7824,3.7931,3.7941,3.7804,3.7802,3.7801,0,3.7764,3.7792,3.7828,3.7832,3.783,3.7847,3.7846,3.7847,3.7857,3.7867,3.7872,3.7885,3.7892,3.7903,3.7886,3.786,3.7927,3.7887,3.7922,3.7922,3.7937,3.7936,3.8047,3.7943,3.7943,3.7943,3.7942,0,3.7849,3.7883,3.7861,3.7883,3.7919,3.7898,3.7935,3.7931,3.7932,3.7952,3.7925,3.7945,3.7922,3.7939,3.7927,3.796,3.7963,3.7958,3.7955,3.7961,3.7961,3.7966,3.796,3.7945,3.7945,3.7944,3.7944,0,3.7938,3.7925,3.7962,3.7957,3.7956,3.7984,3.7979,3.7999,3.799,3.8016,3.8021,3.8007,3.8026,3.8011,3.8029,3.802,3.8064,3.8054,3.8064,3.806,3.8096,3.8092,3.8213,3.8227,3.8115,3.8116,3.8117,0,3.7993,3.8018,3.8016,3.8028,3.803,3.8049,3.8058,3.8039,3.805,3.8055,3.8074,3.809,3.8102,3.8134,3.8125,3.8139,3.8128,3.817,3.813,3.8135,3.8128,3.8127,3.8129,3.8177,3.8179,3.818,3.8181,0,3.8092,3.8084,3.8099,3.8112,3.8124,3.8133,3.814,3.8151,3.8131,3.8144,3.8163,3.8173,3.8191,3.8208,3.8219,3.8218,3.8196,3.8193,3.8202,3.8208,3.8213,3.821,3.8085,3.819,3.819,3.8189,3.8188,3.8188,3.8165,3.8186,3.8188,3.8205,3.8208,3.8215,3.8233,3.8227,3.8243,3.8256,3.8244,3.8267,3.8268,3.8281,3.8283,3.83,3.8283,3.8296,3.8299,3.8302,3.8307,3.821,3.8302,3.8302,3.8302,3.8301,3.8301,0,3.8262,3.8261,3.8278,3.8288,3.8302,3.828,3.8287,3.83,3.832,3.8324,3.8336,3.8358,3.8374,3.8367,3.8381,3.8396,3.8386,3.84,3.8399,3.8399,3.8322,3.8313,3.8408,3.8408,3.8408,3.8408,3.8408,3.8408,3.8314,3.8348,3.834,3.8375,3.8374,3.8396,3.8402,3.8408,3.8411,3.8436,3.8449,3.8445,3.8444,3.8458,3.8471,3.8469,3.8475,3.8493,3.8487,3.8415,3.8404,3.8394,3.8386,3.8494,3.8494,3.8562,3.8563,3.8563]}]]